Powrót do katalogu

SL-14 R/B

AktywnyPO
NORAD 15890·ROCKET BODY·🇷🇺 Russia

Wystrzelony Jul 8, 1985 z Plesetsk Cosmodrome

Loading…

Następne Przeloty (najbliższe 24 godziny)

TLE

ŚwieżeSource: Space-Track

Epoka: Sep 14, 2026, 04:55 UTC

1 15890U 85058B   26257.20515443  .00000294  00000-0  30823-4 0  9990
2 15890  82.5286 337.8110 0018694 235.5177 124.4275 14.85910545204459

Śledź SL-14 R/B w czasie rzeczywistym z AllMySat

Download on the App Store